国际通讯卫星 508星 (INTELSAT 508)

导读 | 豆包AI

INTELSAT 508是由国际通信卫星组织(ITSO)于1984年3月5日发射的通信卫星,属于国际通信卫星系列的第五代卫星,该系列卫星是国际通信卫星组织全球化布局的重要组成部分,主要承担跨洋洲际通信、广播电视信号传输等任务,运行于地球静止轨道,为全球范围内的公众通信服务提供支撑,推动了全球卫星通信网络的早期普及。

Basic Information
目录编号:
14786
目录名称:
INTELSAT 508
国际标识:
1984-023A
轨道中心:
EARTH
卫星名称:
国际通讯卫星 508星
卫星全名:
国际通讯卫星 508星 (INTELSAT 508)
卫星状态:
在轨 (已飞行15349 天)
发射日期:
1984-03-05 UTC
国别 :
(ITSO)
星等 :
--
Orbit Information
数据来源 国际轨道数据 AOE轨道数据
星历时间 2026-03-13T22:15:06+0800
18小时前
查看轨道信息
2026-03-12T22:00:00+0800
1天前
查看轨道信息
半长轴 43021.234km 43020.91km
偏心率 0.0018582 0.0018656
轨道倾角 13.717° 13.718°
近地点辐角 277.641° 277.394°
升交点赤经 338.436° 338.442°
平近点角 248.374° 254.690°
近地点 36563.154km 36562.513km
远地点 36723.04km 36723.033km
周期 1480.076分钟 1480.059分钟
每日圈数 0.972923 0.972934
Detailed Information
卫星平台:
Intelsat V
平衡模式:
三轴稳定
覆盖范围:
全球
运营商:
国际卫星通信公司
运营商所在国:
美国
制造商(研发单位):
福特工程公司
制造商所在国:
美国
使用方式:
暂无
Satellite Introduction
从1965年4月至1984年3月,国际通信卫星组织发射了5代、6种不同性能的卫星共计35颗,除6颗卫星因运载火箭和远地点发动机故障而发射失败外,其余29颗卫星均被送到了预定的静止轨道位置。1984年8月前后,国际通信卫星组织利用部署在大西洋、太平洋、印度洋上空的15颗国际通信卫星,为遍布世界各地170多个国家或地区提供电话、电传、电报、电视和数据传输等电信业务;该卫星已退役。
2D Orbit Map
3D Orbit Map
Orbit Altitude Analysis Chart
Orbit Inclination Analysis Chart
Orbit Comprehensive Analysis Chart
View Comprehensive Chart